Weather History for Corpus Christi, TX

Change the Weather History Date:

Sunday, October 28, 2012

  Actual Average Record
Temperature  
Mean Temperature 61 °F 72 °F  
Max Temperature 72 °F 82 °F 92 °F (1921)
Min Temperature 50 °F 62 °F 41 °F (2008)
Degree Days  
Heating Degree Days 4 1  
Month to date heating degree days 6 5  
Since 1 July heating degree days 6 5  
Cooling Degree Days 0 8  
Month to date cooling degree days 385 289  
Year to date cooling degree days 4188 3332  
Growing Degree Days 14 (Base 50)    
Moisture  
Dew Point 35 °F    
Average Humidity 37    
Maximum Humidity 51    
Minimum Humidity 22    
Precipitation  
Precipitation 0.00 in 0.11 in 2.61 in (2002)
Month to date precipitation 0.19 3.34  
Year to date precipitation 18.20 27.66  
Snow  
Snow 0.00 in - - ()
Month to date snowfall 0.0  
Since 1 July snowfall 0.0  
Since 1 September snowfall 0.0  
Snow Depth 0.00 in    
Sea Level Pressure  
Sea Level Pressure 30.20 in    
Wind  
Wind Speed 10 mph (NE)    
Max Wind Speed 18 mph    
Max Gust Speed 22 mph    
Visibility 10 miles    
Events      
T = Trace of Precipitation, MM = Missing Value Source: NWS Daily Summary

Daily Weather History Graph

Daily Weather History Graph

Search for Another Location

Airport:

Trip Planner

Search our weather history database for the weather conditions in past years. The results will help you decide how hot, cold, wet, or windy it might be!

Date:

Astronomy

Oct. 28, 2012 Rise Set
Actual Time 7:38 AM CDT 6:48 PM CDT
Civil Twilight 7:14 AM CDT 7:12 PM CDT
Nautical Twilight 6:46 AM CDT 7:40 PM CDT
Astronomical Twilight 6:19 AM CDT 8:07 PM CDT
Moon 6:06 PM CDT (10/28) 6:35 AM CDT (10/28)
Length of Visible Light 11h 57m
Length of Day
11h 09m
Waxing Gibbous, 99% of the Moon is Illuminated
Oct 28
Waxing Gibbous
Oct 29
Full
Nov 6
Last Quarter
Nov 13
New
Nov 20
First Quarter

Hourly Weather History & Observations

Time (CDT) Temp. Dew Point Humidity Pressure Visibility Wind Dir Wind Speed Gust Speed Precip Events Conditions
12:51 AM 62.6 °F 35.6 °F 37% 30.18 in 10.0 mi NNE 11.5 mph - N/A   Overcast
1:51 AM 62.1 °F 35.1 °F 37% 30.18 in 10.0 mi NNE 11.5 mph - N/A   Overcast
2:51 AM 61.0 °F 34.0 °F 36% 30.17 in 10.0 mi NNE 17.3 mph - N/A   Overcast
3:51 AM 61.0 °F 35.1 °F 38% 30.17 in 10.0 mi NE 13.8 mph - N/A   Overcast
4:51 AM 61.0 °F 35.1 °F 38% 30.18 in 10.0 mi NE 12.7 mph - N/A   Overcast
5:51 AM 60.1 °F 36.0 °F 41% 30.19 in 10.0 mi NNE 15.0 mph - N/A   Overcast
6:51 AM 59.0 °F 36.0 °F 42% 30.19 in 10.0 mi NNE 15.0 mph - N/A   Overcast
7:51 AM 59.0 °F 36.0 °F 42% 30.22 in 10.0 mi NE 13.8 mph - N/A   Mostly Cloudy
8:51 AM 59.0 °F 36.0 °F 42% 30.24 in 10.0 mi North 13.8 mph - N/A   Mostly Cloudy
9:51 AM 60.1 °F 36.0 °F 41% 30.26 in 10.0 mi NE 11.5 mph - N/A   Overcast
10:51 AM 60.1 °F 35.1 °F 39% 30.26 in 10.0 mi NNE 12.7 mph - N/A   Overcast
11:51 AM 62.1 °F 35.1 °F 37% 30.26 in 10.0 mi NNE 11.5 mph - N/A   Overcast
12:51 PM 64.9 °F 33.1 °F 31% 30.24 in 10.0 mi NNE 12.7 mph - N/A   Overcast
1:51 PM 68.0 °F 32.0 °F 26% 30.20 in 10.0 mi NE 12.7 mph - N/A   Mostly Cloudy
2:51 PM 69.1 °F 32.0 °F 25% 30.18 in 10.0 mi ENE 8.1 mph - N/A   Clear
3:51 PM 71.1 °F 32.0 °F 24% 30.16 in 10.0 mi Variable 5.8 mph - N/A   Partly Cloudy
4:51 PM 71.1 °F 30.0 °F 22% 30.15 in 10.0 mi Variable 5.8 mph - N/A   Partly Cloudy
5:51 PM 69.1 °F 33.1 °F 26% 30.16 in 10.0 mi ESE 6.9 mph - N/A   Partly Cloudy
6:51 PM 66.0 °F 35.1 °F 32% 30.17 in 10.0 mi ESE 8.1 mph - N/A   Scattered Clouds
7:51 PM 64.0 °F 34.0 °F 33% 30.18 in 10.0 mi SSE 6.9 mph - N/A   Mostly Cloudy
8:51 PM 59.0 °F 33.1 °F 38% 30.19 in 10.0 mi SSE 5.8 mph - N/A   Clear
9:51 PM 57.0 °F 33.1 °F 40% 30.21 in 10.0 mi South 4.6 mph - N/A   Clear
10:51 PM 57.0 °F 36.0 °F 45% 30.21 in 10.0 mi South 3.5 mph - N/A   Mostly Cloudy
11:51 PM 55.9 °F 37.9 °F 51% 30.21 in 10.0 mi Calm Calm - N/A   Partly Cloudy